CW5404 Weather Reports


time (UTC)temp
C
wind
direction
speed
KPH
gust
KPH
rain 1hr
cm
rain 24hr
cm
rain mn
cm
humidity
%
barometer
mb
20260902162004 15 246 3.2 11.3 0.05 0.05 0.05 84 1006.2
20260902161003 15 214 9.7 12.9 0.03 0.03 0.03 83 1006.1
20260902160503 15 211 4.8 12.9 0.00 0.00 0.00 83 1006.1
20260902155503 15 189 3.2 8.0 0.00 0.00 0.00 83 1006.1
20260902155004 15 202 6.4 8.0 0.00 0.00 0.00 83 1006.1
20260902154503 15 185 1.6 6.4 0.00 0.00 0.00 83 1006.1
20260902153503 15 176 4.8 6.4 0.00 0.00 0.00 83 1006.2
20260902153003 15 178 0.0 6.4 0.00 0.00 0.00 83 1006.2
20260902152503 15 154 0.0 4.8 0.00 0.00 0.00 83 1006.3
20260902152003 15 148 1.6 6.4 0.00 0.00 0.00 82 1006.3
20260902151503 15 153 1.6 6.4 0.00 0.00 0.00 82 1006.3
20260902151003 15 154 3.2 4.8 0.00 0.00 0.00 82 1006.4
20260902150503 15 186 1.6 8.0 0.00 0.00 0.00 83 1006.4
20260902150003 15 188 1.6 8.0 0.00 0.00 0.00 83 1006.4
20260902145503 15 176 0.0 3.2 0.00 0.00 0.00 83 1006.6
20260902145003 15 168 0.0 6.4 0.00 0.00 0.00 83 1006.6
20260902144503 15 207 0.0 6.4 0.00 0.00 0.00 83 1006.6
20260902143503 15 156 3.2 8.0 0.00 0.00 0.00 83 1006.7
20260902143003 15 161 3.2 6.4 0.00 0.00 0.00 83 1006.7
20260902142003 15 174 4.8 9.7 0.00 0.00 0.00 82 1006.9
20260902141502 15 181 4.8 9.7 0.00 0.00 0.00 81 1006.9
20260902141002 15 196 4.8 9.7 0.00 0.00 0.00 81 1007.0
20260902140502 15 210 1.6 9.7 0.00 0.00 0.00 80 1007.0
20260902135502 15 172 1.6 3.2 0.00 0.00 0.00 79 1007.0
20260902135003 15 174 0.0 8.0 0.00 0.00 0.00 79 1007.0
20260902134503 15 179 0.0 8.0 0.00 0.00 0.00 79 1007.0
20260902134002 15 182 0.0 6.4 0.00 0.00 0.00 79 1007.3
20260902133502 15 180 0.0 6.4 0.00 0.00 0.00 79 1007.3
20260902132502 15 202 3.2 9.7 0.00 0.00 0.00 79 1007.4
20260902132002 15 165 3.2 11.3 0.00 0.00 0.00 79 1007.4
20260902131502 15 168 3.2 11.3 0.00 0.00 0.00 79 1007.4
20260902131002 15 184 6.4 9.7 0.00 0.00 0.00 79 1007.6
20260902130002 15 181 4.8 11.3 0.00 0.00 0.00 79 1007.6
20260902125502 15 197 3.2 11.3 0.00 0.00 0.00 79 1007.9
20260902124502 15 203 9.7 11.3 0.00 0.00 0.00 79 1007.9
20260902123001 15 226 6.4 6.4 0.00 0.00 0.00 80 1008.0
20260902122502 15 215 3.2 8.0 0.00 0.00 0.00 80 1008.2
20260902122001 15 194 3.2 8.0 0.00 0.00 0.00 80 1008.2
20260902121001 15 203 1.6 4.8 0.00 0.00 0.00 80 1008.4
20260902120501 15 180 0.0 3.2 0.00 0.00 0.00 80 1008.4
20260902120002 15 180 1.6 3.2 0.00 0.00 0.00 80 1008.4
20260902115501 15 173 3.2 4.8 0.00 0.00 0.00 80 1008.6
20260902114501 15 136 1.6 6.4 0.00 0.00 0.00 79 1008.6
20260902114001 15 155 3.2 4.8 0.00 0.00 0.00 79 1008.8
20260902113501 15 190 1.6 6.4 0.00 0.00 0.00 79 1008.8
20260902113001 15 205 3.2 6.4 0.00 0.00 0.00 79 1008.8
20260902112501 15 181 3.2 6.4 0.00 0.00 0.00 79 1009.0
20260902112001 15 193 3.2 6.4 0.00 0.00 0.00 79 1009.0
20260902111501 15 144 4.8 6.4 0.00 0.00 0.00 80 1009.0
20260902111001 15 210 4.8 6.4 0.00 0.00 0.00 80 1009.2
20260902110001 15 202 4.8 6.4 0.00 0.00 0.00 79 1009.2
20260902105501 15 203 1.6 8.0 0.00 0.00 0.00 79 1009.5
20260902105001 15 159 3.2 8.0 0.00 0.00 0.00 78 1009.5
20260902104501 15 159 0.0 6.4 0.00 0.00 0.00 78 1009.5
20260902104001 15 160 0.0 8.0 0.00 0.00 0.00 77 1009.6
20260902103500 15 176 1.6 8.0 0.00 0.00 0.00 77 1009.6
20260902103000 15 173 4.8 8.0 0.00 0.00 0.00 77 1009.6
20260902102500 15 211 4.8 9.7 0.00 0.00 0.00 77 1009.7
20260902102000 15 218 4.8 11.3 0.00 0.00 0.00 78 1009.7
20260902101501 15 221 3.2 11.3 0.00 0.00 0.00 78 1009.7
20260902101001 15 200 6.4 6.4 0.00 0.00 0.00 79 1009.7
20260902100500 15 184 1.6 4.8 0.00 0.00 0.00 79 1009.7
20260902100000 15 185 1.6 6.4 0.00 0.00 0.00 80 1009.7
20260902095000 15 157 1.6 4.8 0.00 0.00 0.00 80 1009.9
20260902094501 15 183 1.6 4.8 0.00 0.00 0.00 80 1009.9
20260902093500 15 182 3.2 8.0 0.00 0.00 0.00 80 1010.0
20260902093000 15 161 4.8 8.0 0.00 0.00 0.00 81 1010.0
20260902092500 15 185 3.2 6.4 0.00 0.00 0.00 80 1010.0
20260902091500 15 186 3.2 8.0 0.00 0.00 0.00 80 1010.0
20260902091000 15 189 4.8 8.0 0.00 0.00 0.00 79 1010.1
20260902090500 15 190 1.6 6.4 0.00 0.00 0.00 79 1010.1
20260902090001 15 187 1.6 8.0 0.00 0.00 0.00 79 1010.1
20260902085501 15 201 1.6 8.0 0.00 0.00 0.00 79 1010.4
20260902084500 15 198 0.0 6.4 0.00 0.00 0.00 79 1010.4
20260902084001 15 185 3.2 9.7 0.00 0.00 0.00 79 1010.4
20260902083500 15 199 3.2 9.7 0.00 0.00 0.00 79 1010.4
20260902082500 15 182 0.0 3.2 0.00 0.00 0.00 80 1010.5
20260902081500 15 215 3.2 8.0 0.00 0.00 0.00 80 1010.5
20260902081000 15 192 3.2 9.7 0.00 0.00 0.00 80 1010.5
20260902080500 15 206 1.6 9.7 0.00 0.00 0.00 81 1010.5
20260902080000 15 199 4.8 4.8 0.00 0.00 0.00 82 1010.5
20260902075500 15 209 0.0 3.2 0.00 0.00 0.00 82 1010.6
20260902074500 15 199 0.0 4.8 0.00 0.00 0.00 84 1010.6
20260902074000 15 198 0.0 4.8 0.00 0.00 0.00 84 1010.8
20260902072500 15 196 0.0 0.0 0.00 0.00 0.00 83 1010.9
20260902071459 15 196 0.0 1.6 0.00 0.00 0.00 83 1010.9
20260902070500 15 196 1.6 9.7 0.00 0.00 0.00 82 1010.9
20260902065959 15 207 4.8 9.7 0.00 0.00 0.00 82 1010.9
20260902065459 15 188 1.6 8.0 0.00 0.00 0.00 82 1011.0
20260902064959 15 214 3.2 8.0 0.00 0.00 0.00 82 1011.0
20260902064459 15 220 4.8 8.0 0.00 0.00 0.00 82 1011.0
20260902063959 15 214 3.2 8.0 0.00 0.00 0.00 82 1011.1
20260902063459 15 196 3.2 9.7 0.00 0.00 0.00 82 1011.1
20260902062959 15 211 4.8 9.7 0.00 0.00 0.00 82 1011.1
20260902062459 15 189 6.4 8.0 0.00 0.00 0.00 82 1011.1
20260902061959 15 229 4.8 8.0 0.00 0.00 0.00 82 1011.1
20260902060959 15 207 3.2 8.0 0.00 0.00 0.00 82 1011.3
20260902060459 15 47 0.0 8.0 0.00 0.00 0.00 81 1011.3
20260902055959 16 212 4.8 8.0 0.00 0.00 0.00 81 1011.3
20260902055459 16 223 1.6 9.7 0.00 0.00 0.00 81 1011.5
20260902054959 16 202 1.6 9.7 0.00 0.00 0.00 79 1011.5
20260902054459 16 207 6.4 11.3 0.00 0.00 0.00 79 1011.5
20260902053459 16 211 6.4 9.7 0.00 0.00 0.00 78 1011.5
20260902052959 16 211 0.0 11.3 0.00 0.00 0.00 78 1011.6
20260902052459 16 265 6.4 11.3 0.00 0.00 0.00 78 1011.6
20260902051958 16 206 4.8 16.1 0.00 0.00 0.00 78 1011.6
20260902051458 16 214 4.8 16.1 0.00 0.00 0.00 78 1011.6
20260902050958 16 217 12.9 12.9 0.00 0.00 0.00 77 1011.6
20260902045959 16 190 8.0 9.7 0.00 0.00 0.00 77 1011.5
20260902045459 16 188 0.0 0.0 0.00 0.00 0.00 77 1011.6
20260902044959 16 188 0.0 0.0 0.00 0.00 0.00 77 1011.6
20260902043958 16 188 0.0 4.8 0.00 0.00 0.00 77 1011.5
20260902043458 16 188 3.2 8.0 0.00 0.00 0.00 77 1011.5
20260902042958 16 183 0.0 8.0 0.00 0.00 0.00 76 1011.6
20260902042458 16 190 3.2 6.4 0.00 0.00 0.00 76 1011.7
20260902040958 16 211 1.6 4.8 0.00 0.00 0.00 75 1011.6
20260902040458 16 210 0.0 4.8 0.00 0.00 0.00 75 1011.6
20260902035958 16 211 3.2 4.8 0.00 0.00 0.00 74 1011.6
20260902035458 16 256 0.0 0.0 0.00 0.00 0.00 74 1011.5
20260902034458 16 257 0.0 0.0 0.00 0.00 0.00 73 1011.5
20260902033958 16 257 0.0 0.0 0.00 0.00 0.00 72 1011.5
20260902033458 17 257 0.0 0.0 0.00 0.00 0.00 72 1011.5
20260902032958 17 257 0.0 0.0 0.00 0.00 0.00 72 1011.5
20260902032458 17 257 0.0 0.0 0.00 0.00 0.00 72 1011.4
20260902031958 17 260 0.0 0.0 0.00 0.00 0.00 71 1011.4
20260902031458 17 261 0.0 1.6 0.00 0.00 0.00 71 1011.4
20260902030957 17 262 0.0 3.2 0.00 0.00 0.00 70 1011.5
20260902030457 17 262 1.6 4.8 0.00 0.00 0.00 70 1011.5
20260902025957 17 232 0.0 4.8 0.00 0.00 0.00 70 1011.5
20260902025457 17 13 1.6 4.8 0.00 0.00 0.00 69 1011.6
20260902024958 17 337 1.6 4.8 0.00 0.00 0.00 69 1011.6
20260902023958 17 275 3.2 6.4 0.00 0.00 0.00 68 1011.4
20260902023458 17 344 3.2 6.4 0.00 0.00 0.00 67 1011.4
20260902022957 18 329 1.6 4.8 0.00 0.00 0.00 67 1011.4
20260902022457 18 5 1.6 4.8 0.00 0.00 0.00 66 1011.3
20260902021957 18 313 3.2 4.8 0.00 0.00 0.00 66 1011.3
20260902021457 18 19 1.6 8.0 0.00 0.00 0.00 66 1011.3
20260902020957 18 303 3.2 8.0 0.00 0.00 0.00 66 1011.4
20260902020457 18 221 8.0 9.7 0.00 0.00 0.00 65 1011.4
20260902015957 18 122 3.2 11.3 0.00 0.00 0.00 65 1011.4
20260902015457 18 360 3.2 11.3 0.00 0.00 0.00 64 1011.2
20260902014957 18 360 0.0 9.7 0.00 0.00 0.00 64 1011.2
20260902014457 18 360 1.6 8.0 0.00 0.00 0.00 63 1011.2
20260902013957 18 360 1.6 8.0 0.00 0.00 0.00 64 1011.1
20260902013457 18 360 3.2 8.0 0.00 0.00 0.00 65 1011.1
20260902012957 18 360 3.2 4.8 0.00 0.00 0.00 65 1011.1
20260902012457 18 360 1.6 4.8 0.00 0.00 0.00 66 1011.2
20260902011957 18 360 0.0 6.4 0.00 0.00 0.00 66 1011.2
20260902011457 18 360 3.2 6.4 0.00 0.00 0.00 66 1011.2
20260902010957 18 360 3.2 6.4 0.00 0.00 0.00 66 1011.1
20260902010457 18 360 3.2 6.4 0.00 0.00 0.00 66 1011.1
20260902005957 18 360 4.8 9.7 0.00 0.00 0.00 66 1011.1
20260902005457 18 360 0.0 9.7 0.00 0.00 0.00 66 1011.1
20260902004457 18 360 0.0 8.0 0.00 0.00 0.00 68 1011.1
20260902003957 18 360 4.8 8.0 0.00 0.00 0.00 68 1011.2
20260902003456 18 360 4.8 6.4 0.00 0.00 0.00 68 1011.2
20260902002956 18 167 1.6 6.4 0.00 0.00 0.00 69 1011.2
20260902002456 18 192 3.2 6.4 0.00 0.00 0.00 68 1011.2
20260902001957 18 355 3.2 12.9 0.00 0.00 0.00 68 1011.2
20260902001457 18 90 1.6 12.9 0.00 0.00 0.00 68 1011.2
20260902000957 18 334 0.0 9.7 0.00 0.00 0.00 68 1011.1
20260902000458 18 36 3.2 9.7 0.00 0.00 0.00 69 1011.1
20260901235957 18 171 1.6 6.4 0.00 0.00 0.00 70 1011.1
20260901234956 18 165 3.2 6.4 0.00 0.00 0.00 69 1011.0
20260901234456 18 331 0.0 4.8 0.00 0.00 0.00 69 1011.0
20260901233957 18 355 3.2 8.0 0.00 0.00 0.00 68 1011.1
20260901233457 18 224 3.2 8.0 0.00 0.00 0.00 68 1011.1
20260901232956 18 144 3.2 6.4 0.00 0.00 0.00 67 1011.1
20260901232456 18 336 3.2 9.7 0.00 0.00 0.00 66 1011.0
20260901231956 18 174 3.2 9.7 0.00 0.00 0.00 65 1011.0
20260901231457 18 55 1.6 6.4 0.00 0.00 0.00 63 1011.0
20260901230956 18 192 1.6 8.0 0.00 0.00 0.00 63 1011.0
20260901225956 18 227 1.6 6.4 0.00 0.00 0.00 64 1011.0
20260901225527 18 211 4.8 4.8 0.00 0.00 0.00 64 1011.0
20260901224456 18 304 0.0 4.8 0.00 0.00 0.00 63 1011.0
20260901223956 19 309 0.0 6.4 0.00 0.00 0.00 63 1011.0
20260901223456 19 126 0.0 8.0 0.00 0.00 0.00 63 1011.0
20260901222956 19 216 6.4 11.3 0.00 0.00 0.00 62 1011.0
20260901222456 19 248 3.2 11.3 0.00 0.00 0.00 61 1011.0
20260901221956 19 213 6.4 9.7 0.00 0.00 0.00 61 1011.0
20260901221456 20 360 1.6 9.7 0.00 0.00 0.00 60 1011.0
20260901220956 19 220 3.2 11.3 0.00 0.00 0.00 60 1011.0
20260901220457 19 329 1.6 11.3 0.00 0.00 0.00 60 1011.0
20260901215455 20 216 3.2 9.7 0.00 0.00 0.00 60 1010.9
20260901214455 20 190 0.0 9.7 0.00 0.00 0.00 61 1010.9
20260901213955 20 193 4.8 9.7 0.00 0.00 0.00 60 1010.7
20260901213455 20 213 6.4 6.4 0.00 0.00 0.00 60 1010.7
20260901212956 20 254 0.0 6.4 0.00 0.00 0.00 60 1010.7
20260901212456 20 320 0.0 6.4 0.00 0.00 0.00 60 1010.9
20260901211956 20 207 4.8 6.4 0.00 0.00 0.00 60 1010.9
20260901211456 20 295 1.6 12.9 0.00 0.00 0.00 61 1010.9
20260901210956 20 149 1.6 12.9 0.00 0.00 0.00 60 1010.8
20260901210456 20 214 8.0 11.3 0.00 0.00 0.00 58 1010.8
20260901205956 20 238 1.6 9.7 0.00 0.00 0.00 58 1010.8
20260901205455 20 360 3.2 4.8 0.00 0.00 0.00 58 1010.9
20260901204956 20 360 1.6 4.8 0.00 0.00 0.00 57 1010.9
20260901204456 20 360 3.2 6.4 0.00 0.00 0.00 58 1010.9
20260901203955 20 360 0.0 9.7 0.00 0.00 0.00 59 1010.9
20260901203456 20 360 4.8 9.7 0.00 0.00 0.00 60 1010.9
20260901202455 19 189 1.6 8.0 0.00 0.00 0.00 61 1011.0
20260901201955 19 194 3.2 11.3 0.00 0.00 0.00 60 1011.0
20260901201456 19 194 3.2 11.3 0.00 0.00 0.00 62 1011.0
20260901200455 19 163 3.2 16.1 0.00 0.00 0.00 62 1011.0
20260901195955 19 224 8.0 16.1 0.00 0.00 0.00 61 1011.0
20260901194955 20 200 1.6 8.0 0.00 0.00 0.00 59 1011.0
20260901194455 21 228 1.6 8.0 0.00 0.00 0.00 58 1011.1
20260901193955 20 51 0.0 11.3 0.00 0.00 0.00 60 1011.1
20260901193455 20 360 6.4 11.3 0.00 0.00 0.00 59 1011.1
20260901192955 20 360 3.2 11.3 0.00 0.00 0.00 62 1011.1
20260901192455 19 360 8.0 11.3 0.00 0.00 0.00 63 1011.4
20260901191955 20 360 11.3 11.3 0.00 0.00 0.00 62 1011.4
20260901191455 20 360 3.2 12.9 0.00 0.00 0.00 63 1011.4
20260901190955 19 360 8.0 12.9 0.00 0.00 0.00 63 1011.5
20260901190455 19 360 9.7 16.1 0.00 0.00 0.00 65 1011.5
20260901185955 18 360 3.2 16.1 0.00 0.00 0.00 67 1011.5
20260901185454 18 360 8.0 11.3 0.00 0.00 0.00 68 1011.6
20260901184955 18 360 3.2 9.7 0.00 0.00 0.00 68 1011.6
20260901183955 17 360 4.8 11.3 0.00 0.00 0.00 70 1011.8
20260901183455 17 360 4.8 14.5 0.00 0.00 0.00 71 1011.8
20260901182954 17 360 9.7 14.5 0.00 0.00 0.00 72 1011.8
20260901182454 17 360 14.5 14.5 0.00 0.00 0.00 72 1011.7
20260901175954 17 195 6.4 11.3 0.00 0.00 0.00 73 1011.6
20260901175454 18 254 4.8 11.3 0.00 0.00 0.00 72 1011.6
20260901174954 18 196 1.6 9.7 0.00 0.00 0.00 71 1011.6
20260901174455 18 195 4.8 11.3 0.00 0.00 0.00 70 1011.6
20260901173954 18 189 4.8 11.3 0.00 0.00 0.00 70 1011.5
20260901173455 18 224 8.0 11.3 0.00 0.00 0.00 69 1011.6
20260901172955 18 205 0.0 14.5 0.00 0.00 0.00 70 1011.6
20260901172454 18 191 4.8 14.5 0.00 0.00 0.00 69 1011.6
20260901171955 18 161 4.8 6.4 0.00 0.00 0.00 69 1011.6
20260901171454 18 360 3.2 9.7 0.00 0.00 0.00 73 1011.6
20260901170954 17 360 0.0 9.7 0.00 0.00 0.00 74 1011.5
20260901170454 17 360 3.2 9.7 0.00 0.00 0.00 75 1011.5
20260901165954 17 360 4.8 9.7 0.00 0.00 0.00 76 1011.5
20260901165454 17 360 4.8 9.7 0.00 0.00 0.00 77 1011.6
20260901164454 17 360 1.6 8.0 0.00 0.00 0.00 78 1011.6
20260901163454 17 360 1.6 8.0 0.00 0.00 0.00 79 1011.7
20260901162454 16 360 6.4 8.0 0.00 0.00 0.00 81 1011.9